Location: Unspecified
(43.4680°N, 87.1740°E)
Time: 21:36:27
(UTC+00:00)

Cosmos 1455 - Pass Details

Date: 17 April 2021
Orbit: 498 x 521 km, 82.5° (Epoch: 12 May)

Event Time Altitude Azimuth Distance (km) Brightness Sun altitude
Exits shadow 14:45:32 - 203° (SSW) 2,443 5.5 -18.5°
Reaches altitude 10° 14:47:21 10° 209° (SSW) 1,711 4.8 -18.8°
Maximum altitude 14:50:56 43° 282° (WNW) 717 3.3 -19.3°
Drops below altitude 10° 14:54:32 10° 355° (N) 1,715 5.4 -19.8°
Sets 14:56:44 0° 2° (N) 2,602 6.3 -20.2°
